FW8813 Weather Reports


time (UTC)temp
C
wind
direction
speed
KPH
gust
KPH
rain 1hr
cm
rain 24hr
cm
rain mn
cm
humidity
%
barometer
mb
20210920063124 20 0 0.0 1.6 0.00 0.18 0.00 96 1022.8
20210920062543 20 0 0.0 1.6 0.00 0.18 0.00 96 1022.8
20210920062033 20 0 0.0 1.6 0.00 0.18 0.00 96 1022.9
20210920061607 20 275 0.0 1.6 0.00 0.18 0.00 96 1022.8
20210920061038 20 275 0.0 1.6 0.00 0.18 0.00 96 1022.8
20210920060550 20 278 0.0 1.6 0.00 0.18 0.00 96 1022.8
20210920060238 20 278 0.0 1.6 0.00 0.18 0.00 96 1022.8
20210920055551 20 278 0.0 1.6 0.00 0.18 0.00 96 1022.8
20210920055038 20 278 0.0 1.6 0.00 0.18 0.00 96 1022.9
20210920054635 20 277 0.0 1.6 0.00 0.18 0.00 96 1022.8
20210920054035 20 277 0.0 1.6 0.00 0.18 0.00 96 1022.8
20210920053539 20 0 0.0 1.6 0.00 0.18 0.00 96 1022.8
20210920053046 20 277 0.0 1.6 0.00 0.18 0.00 96 1022.7
20210920052541 20 0 0.0 1.6 0.00 0.18 0.00 96 1022.6
20210920052034 20 277 0.0 1.6 0.00 0.18 0.00 96 1022.6
20210920051546 20 277 0.0 1.6 0.00 0.18 0.00 96 1022.7
20210920051033 20 0 0.0 1.6 0.00 0.18 0.00 96 1022.7
20210920050538 20 0 0.0 1.6 0.00 0.18 0.00 96 1022.8
20210920050154 20 277 0.0 1.6 0.00 0.18 0.00 96 1022.6
20210920045534 20 277 0.0 1.6 0.00 0.18 0.00 96 1022.7
20210920045033 20 277 0.0 1.6 0.00 0.18 0.00 95 1022.7
20210920044607 20 277 0.0 1.6 0.00 0.18 0.00 96 1022.6
20210920044112 20 277 0.0 1.6 0.00 0.18 0.00 95 1022.6
20210920043531 20 0 0.0 1.6 0.00 0.18 0.00 96 1022.6
20210920043101 20 277 0.0 1.6 0.00 0.18 0.00 96 1022.6
20210920042546 20 277 0.0 1.6 0.00 0.18 0.00 95 1022.7
20210920042037 20 0 0.0 0.0 0.00 0.18 0.00 95 1022.6
20210920041553 20 0 0.0 0.0 0.00 0.18 0.00 95 1022.5
20210920041033 20 0 0.0 0.0 0.00 0.18 0.00 95 1022.6
20210920040540 20 0 0.0 0.0 0.00 0.18 0.00 95 1022.6
20210920040108 20 0 0.0 1.6 0.00 0.18 0.00 95 1022.5
20210920035542 20 277 1.6 1.6 0.00 0.18 0.18 95 1022.5
20210920035038 20 276 0.0 1.6 0.00 0.18 0.18 96 1022.5
20210920034559 20 276 0.0 1.6 0.00 0.18 0.18 95 1022.5
20210920034045 20 0 0.0 1.6 0.00 0.18 0.18 95 1022.4
20210920033549 20 276 0.0 1.6 0.00 0.18 0.18 96 1022.5
20210920033056 20 0 0.0 1.6 0.00 0.18 0.18 95 1022.4
20210920032535 20 276 0.0 1.6 0.00 0.18 0.18 95 1022.4
20210920032033 20 276 0.0 1.6 0.00 0.18 0.18 95 1022.4
20210920031625 20 276 0.0 1.6 0.00 0.18 0.18 95 1022.4
20210920031031 21 276 0.0 1.6 0.00 0.18 0.18 95 1022.3
20210920030552 21 0 0.0 1.6 0.00 0.18 0.18 94 1022.3
20210920030125 21 0 0.0 1.6 0.00 0.18 0.18 94 1022.3
20210920025534 21 0 0.0 1.6 0.00 0.18 0.18 94 1022.4
20210920025037 21 0 0.0 1.6 0.00 0.18 0.18 94 1022.3
20210920024554 21 0 0.0 1.6 0.00 0.18 0.18 94 1022.2
20210920024031 21 279 0.0 1.6 0.00 0.18 0.18 94 1022.3
20210920023534 21 279 0.0 1.6 0.00 0.18 0.18 94 1022.3
20210920023129 21 279 1.6 1.6 0.00 0.18 0.18 94 1022.3
20210920022532 21 278 0.0 3.2 0.00 0.18 0.18 94 1022.3
20210920022037 21 281 1.6 3.2 0.00 0.18 0.18 94 1022.2
20210920021540 21 277 1.6 1.6 0.00 0.18 0.18 94 1022.2
20210920021034 21 277 0.0 0.0 0.00 0.18 0.18 94 1022.3
20210920020537 21 0 0.0 0.0 0.00 0.18 0.18 94 1022.2
20210920020105 21 0 0.0 1.6 0.00 0.18 0.18 94 1022.3
20210920015533 21 0 0.0 1.6 0.00 0.18 0.18 94 1022.2
20210920015051 21 0 0.0 3.2 0.00 0.18 0.18 93 1022.1
20210920014641 21 265 0.0 3.2 0.00 0.18 0.18 94 1022.2
20210920014035 21 309 0.0 3.2 0.00 0.18 0.18 94 1022.2
20210920013533 21 18 1.6 3.2 0.00 0.18 0.18 93 1022.2
20210920013132 21 0 0.0 1.6 0.00 0.18 0.18 92 1022.1
20210920012533 21 70 0.0 1.6 0.00 0.18 0.18 92 1021.9
20210920012034 21 70 0.0 6.4 0.00 0.18 0.18 92 1021.9
20210920011551 21 69 1.6 11.3 0.00 0.18 0.18 93 1021.9
20210920011038 21 110 3.2 11.3 0.00 0.18 0.18 93 1021.8
20210920010535 21 0 0.0 1.6 0.00 0.18 0.18 92 1021.5
20210920010117 21 280 0.0 1.6 0.00 0.18 0.18 93 1021.4
20210920005548 21 281 0.0 1.6 0.00 0.18 0.18 93 1021.3
20210920005049 21 0 0.0 1.6 0.00 0.18 0.18 93 1021.3
20210920004702 21 281 0.0 3.2 0.00 0.18 0.18 92 1021.2
20210920004039 21 281 0.0 3.2 0.00 0.18 0.18 92 1021.1
20210920003540 21 276 1.6 3.2 0.00 0.18 0.18 93 1020.9
20210920003058 21 279 1.6 3.2 0.00 0.18 0.18 93 1020.9
20210920002533 21 282 1.6 3.2 0.00 0.18 0.18 92 1020.9
20210920002035 21 284 1.6 3.2 0.00 0.18 0.18 92 1020.8
20210920001613 21 283 1.6 3.2 0.00 0.18 0.18 92 1020.9
20210920001033 21 278 0.0 1.6 0.00 0.18 0.18 93 1020.8
20210920000540 22 0 0.0 1.6 0.00 0.18 0.18 92 1020.8
20210920000107 22 0 0.0 1.6 0.00 0.18 0.18 91 1020.8
20210919235532 22 281 0.0 1.6 0.00 0.18 0.18 90 1020.7
20210919235031 22 0 0.0 3.2 0.10 0.18 0.18 89 1020.7
20210919234556 22 285 0.0 4.8 0.18 0.18 0.18 89 1020.8
20210919234034 22 97 3.2 6.4 0.18 0.18 0.18 88 1020.8
20210919233531 22 316 3.2 8.0 0.18 0.18 0.18 86 1020.8
20210919233113 22 355 1.6 8.0 0.18 0.18 0.18 88 1020.7
20210919232536 22 96 3.2 8.0 0.18 0.18 0.18 89 1020.9
20210919232032 22 27 0.0 1.6 0.18 0.18 0.18 88 1020.7
20210919231601 22 94 0.0 3.2 0.18 0.18 0.18 88 1020.6
20210919231101 23 88 0.0 8.0 0.18 0.18 0.18 87 1020.6
20210919230541 23 57 3.2 9.7 0.18 0.18 0.18 82 1020.6
20210919230046 24 293 4.8 9.7 0.18 0.18 0.18 79 1020.6
20210919225534 25 48 3.2 8.0 0.18 0.18 0.18 76 1020.7
20210919225034 26 75 1.6 14.5 0.08 0.08 0.08 70 1020.7
20210919224635 26 341 6.4 14.5 0.00 0.00 0.00 68 1020.6
20210919224033 26 22 4.8 11.3 0.00 0.00 0.00 68 1020.5
20210919223534 27 345 1.6 1.6 0.00 0.00 0.00 70 1020.5
20210919223204 27 224 0.0 1.6 0.00 0.00 0.00 68 1020.4
20210919222540 27 0 0.0 1.6 0.00 0.00 0.00 65 1020.3
20210919222032 27 0 0.0 1.6 0.00 0.00 0.00 68 1020.3
20210919221717 28 0 0.0 1.6 0.00 0.00 0.00 64 1020.3
20210919221039 28 224 0.0 1.6 0.00 0.00 0.00 63 1020.3
20210919220538 28 0 0.0 1.6 0.00 0.00 0.00 62 1020.2
20210919220055 28 224 0.0 1.6 0.00 0.00 0.00 59 1020.2
20210919215545 28 0 0.0 1.6 0.00 0.00 0.00 59 1020.2
20210919215037 28 0 0.0 1.6 0.00 0.00 0.00 60 1020.1
20210919214600 28 281 0.0 1.6 0.00 0.00 0.00 59 1020.0
20210919214034 28 0 0.0 1.6 0.00 0.00 0.00 58 1020.1
20210919213537 28 269 0.0 1.6 0.00 0.00 0.00 57 1020.1
20210919213106 28 0 0.0 1.6 0.00 0.00 0.00 60 1020.1
20210919212539 28 224 0.0 1.6 0.00 0.00 0.00 60 1020.1
20210919212038 28 0 0.0 1.6 0.00 0.00 0.00 61 1020.2
20210919211611 28 140 0.0 1.6 0.00 0.00 0.00 61 1020.1
20210919211037 28 131 0.0 3.2 0.00 0.00 0.00 60 1020.2
20210919210534 28 131 1.6 3.2 0.00 0.00 0.00 60 1020.2
20210919210050 28 160 0.0 3.2 0.00 0.00 0.00 59 1020.2
20210919205540 28 0 0.0 9.7 0.00 0.00 0.00 58 1020.1
20210919205031 28 158 6.4 9.7 0.00 0.00 0.00 57 1020.3
20210919204611 29 153 3.2 6.4 0.00 0.00 0.00 56 1020.2
20210919204038 29 257 1.6 9.7 0.00 0.00 0.00 58 1020.2
20210919203536 29 134 3.2 9.7 0.00 0.00 0.00 56 1020.4
20210919203220 29 314 3.2 9.7 0.00 0.00 0.00 58 1020.3
20210919202537 29 131 1.6 14.5 0.00 0.00 0.00 57 1020.4
20210919202040 29 105 6.4 14.5 0.00 0.00 0.00 55 1020.4
20210919201619 29 185 1.6 8.0 0.00 0.00 0.00 57 1020.5
20210919201037 29 109 1.6 11.3 0.00 0.00 0.00 56 1020.7
20210919200555 29 148 4.8 11.3 0.00 0.00 0.00 55 1020.6
20210919200127 29 219 3.2 8.0 0.00 0.00 0.00 56 1020.7
20210919195542 29 118 0.0 9.7 0.00 0.00 0.00 57 1020.8
20210919195039 28 256 1.6 9.7 0.00 0.00 0.00 57 1020.7
20210919194807 28 125 4.8 8.0 0.00 0.00 0.00 57 1020.9
20210919194033 28 95 3.2 11.3 0.00 0.00 0.00 56 1020.8
20210919193534 28 125 3.2 11.3 0.00 0.00 0.00 56 1020.9
20210919193108 28 138 1.6 6.4 0.00 0.00 0.00 59 1021.0
20210919192534 28 101 3.2 9.7 0.00 0.00 0.00 56 1020.9
20210919192037 28 129 4.8 11.3 0.00 0.00 0.00 54 1021.3
20210919191646 28 140 4.8 14.5 0.00 0.00 0.00 54 1021.3
20210919191035 28 142 4.8 14.5 0.00 0.00 0.00 56 1021.3
20210919190537 29 230 1.6 8.0 0.00 0.00 0.00 56 1021.3
20210919190052 28 155 1.6 8.0 0.00 0.00 0.00 57 1021.4
20210919185538 28 160 1.6 12.9 0.00 0.00 0.00 59 1021.5
20210919185042 28 108 3.2 12.9 0.00 0.00 0.00 57 1021.6
20210919184548 28 198 1.6 6.4 0.00 0.00 0.00 60 1021.7
20210919184030 27 0 0.0 6.4 0.00 0.00 0.00 59 1021.8
20210919183541 27 129 3.2 9.7 0.00 0.00 0.00 60 1021.8
20210919183050 27 135 4.8 11.3 0.00 0.00 0.00 60 1021.8
20210919182536 27 157 6.4 11.3 0.00 0.00 0.00 59 1021.7
20210919182040 28 147 4.8 9.7 0.00 0.00 0.00 62 1021.9
20210919181710 28 120 3.2 17.7 0.00 0.00 0.00 61 1021.9
20210919181033 28 124 3.2 17.7 0.00 0.00 0.00 59 1021.9
20210919180536 28 129 3.2 8.0 0.00 0.00 0.00 60 1022.0
20210919180105 28 166 3.2 11.3 0.00 0.00 0.00 62 1022.0
20210919175539 28 62 4.8 11.3 0.00 0.00 0.00 61 1022.2
20210919175039 28 127 0.0 8.0 0.00 0.00 0.00 63 1022.2
20210919174624 27 119 3.2 8.0 0.00 0.00 0.00 64 1022.2
20210919174033 28 118 3.2 8.0 0.00 0.00 0.00 66 1022.3
20210919173531 28 129 4.8 8.0 0.00 0.00 0.00 62 1022.3
20210919173134 28 155 0.0 11.3 0.00 0.00 0.00 60 1022.3
20210919172534 28 150 4.8 12.9 0.00 0.00 0.00 60 1022.4
20210919172034 28 172 8.0 16.1 0.00 0.00 0.00 62 1022.6
20210919171632 29 144 4.8 16.1 0.00 0.00 0.00 61 1022.6
20210919171034 28 184 3.2 12.9 0.00 0.00 0.00 62 1022.7
20210919170532 28 163 6.4 12.9 0.00 0.00 0.00 62 1022.7
20210919170207 28 127 6.4 11.3 0.00 0.00 0.00 58 1022.7
20210919165533 28 161 1.6 12.9 0.00 0.00 0.00 61 1022.8
20210919165034 28 138 6.4 14.5 0.00 0.00 0.00 60 1022.8
20210919164621 28 131 8.0 14.5 0.00 0.00 0.00 58 1022.9
20210919164034 28 145 3.2 9.7 0.00 0.00 0.00 64 1022.8
20210919163542 28 93 1.6 11.3 0.00 0.00 0.00 65 1023.0
20210919163144 27 125 6.4 12.9 0.00 0.00 0.00 65 1023.0
20210919162543 27 106 8.0 12.9 0.00 0.00 0.00 66 1023.1
20210919162034 27 107 6.4 11.3 0.00 0.00 0.00 67 1023.1
20210919161603 27 157 3.2 11.3 0.00 0.00 0.00 66 1023.2
20210919161035 27 147 8.0 12.9 0.00 0.00 0.00 67 1023.3
20210919160543 27 132 9.7 12.9 0.00 0.00 0.00 65 1023.2
20210919160203 27 96 4.8 17.7 0.00 0.00 0.00 67 1023.2
20210919155536 27 127 6.4 17.7 0.00 0.00 0.00 66 1023.1
20210919155031 28 71 3.2 14.5 0.00 0.00 0.00 66 1023.2
20210919154626 27 112 8.0 14.5 0.00 0.00 0.00 66 1023.3
20210919154033 27 127 6.4 12.9 0.00 0.00 0.00 65 1023.2
20210919153534 27 118 3.2 11.3 0.00 0.00 0.00 66 1023.3
20210919153123 27 96 4.8 16.1 0.00 0.00 0.00 66 1023.3
20210919152608 27 154 9.7 16.1 0.00 0.00 0.00 66 1023.2
20210919152031 27 170 8.0 14.5 0.00 0.00 0.00 67 1023.3
20210919151653 27 134 8.0 14.5 0.00 0.00 0.00 67 1023.2
20210919151044 27 124 8.0 12.9 0.00 0.00 0.00 66 1023.2
20210919150600 27 72 6.4 12.9 0.00 0.00 0.00 68 1023.4
20210919150121 27 92 6.4 12.9 0.00 0.00 0.00 70 1023.2
20210919145534 27 83 4.8 12.9 0.00 0.00 0.00 71 1023.2
20210919145122 27 127 8.0 12.9 0.00 0.00 0.00 69 1023.2
20210919144555 27 137 3.2 11.3 0.00 0.00 0.00 70 1023.1
20210919144033 27 135 4.8 11.3 0.00 0.00 0.00 72 1023.2
20210919143533 27 127 6.4 11.3 0.00 0.00 0.00 70 1023.2
20210919143104 27 20 1.6 4.8 0.00 0.00 0.00 69 1023.1
20210919142534 27 14 1.6 4.8 0.00 0.00 0.00 73 1023.1
20210919142033 26 161 1.6 6.4 0.00 0.00 0.00 73 1023.1
20210919141728 26 347 3.2 6.4 0.00 0.00 0.00 72 1022.9
20210919141032 26 311 3.2 6.4 0.00 0.00 0.00 72 1022.8
20210919140534 26 338 3.2 8.0 0.00 0.00 0.00 75 1022.9
20210919140056 26 55 4.8 8.0 0.00 0.00 0.00 75 1023.0
20210919135537 26 166 3.2 6.4 0.00 0.00 0.00 73 1022.8
20210919135034 26 23 1.6 3.2 0.00 0.00 0.00 76 1022.8
20210919134602 26 146 1.6 3.2 0.00 0.00 0.00 75 1022.8
20210919134045 26 0 0.0 3.2 0.00 0.00 0.00 77 1022.8
20210919133548 25 133 0.0 3.2 0.00 0.00 0.00 77 1022.8
20210919133148 25 125 0.0 1.6 0.00 0.00 0.00 79 1022.7
20210919132533 25 125 0.0 3.2 0.00 0.00 0.00 79 1022.7
20210919132037 24 128 1.6 3.2 0.00 0.00 0.00 80 1022.7
20210919131547 25 114 0.0 1.6 0.00 0.00 0.00 82 1022.7
20210919131033 23 267 0.0 1.6 0.00 0.00 0.00 84 1022.6
20210919130534 22 269 0.0 1.6 0.00 0.00 0.00 89 1022.6
20210919130102 22 278 0.0 1.6 0.00 0.00 0.00 87 1022.6
20210919125535 21 283 0.0 1.6 0.00 0.00 0.00 89 1022.6
20210919125033 21 283 1.6 1.6 0.00 0.00 0.00 89 1022.6
20210919124623 21 282 1.6 1.6 0.00 0.00 0.00 90 1022.6
20210919124034 20 285 1.6 1.6 0.00 0.00 0.00 90 1022.4
20210919123534 20 281 0.0 3.2 0.00 0.00 0.00 91 1022.4
20210919123100 20 283 1.6 3.2 0.00 0.00 0.00 92 1022.4
20210919122533 20 283 1.6 3.2 0.00 0.00 0.00 92 1022.4
20210919122036 19 283 1.6 1.6 0.00 0.00 0.00 92 1022.4
20210919121543 19 276 0.0 1.6 0.00 0.00 0.00 93 1022.3
20210919121034 18 273 0.0 1.6 0.00 0.00 0.00 94 1022.4
20210919120534 18 274 0.0 1.6 0.00 0.00 0.00 95 1022.3
20210919120134 18 271 0.0 1.6 0.00 0.00 0.00 95 1022.3
20210919115535 17 285 0.0 1.6 0.00 0.00 0.00 95 1022.4
20210919115033 17 285 0.0 1.6 0.00 0.00 0.00 95 1022.2
20210919114613 17 0 0.0 1.6 0.00 0.00 0.00 95 1022.2
20210919114046 17 282 0.0 1.6 0.00 0.00 0.00 96 1022.2
20210919113533 17 290 0.0 1.6 0.00 0.00 0.00 97 1022.1
20210919113037 17 290 1.6 1.6 0.00 0.00 0.00 97 1022.1
20210919112539 16 290 0.0 1.6 0.00 0.00 0.00 97 1021.9
20210919112032 16 290 0.0 1.6 0.00 0.00 0.00 96 1021.9
20210919111613 16 290 0.0 0.0 0.00 0.00 0.00 97 1021.9
20210919111034 16 0 0.0 1.6 0.00 0.00 0.00 97 1021.7
20210919110543 16 0 0.0 1.6 0.00 0.00 0.00 96 1021.9
20210919110110 16 0 0.0 0.0 0.00 0.00 0.00 96 1021.8
20210919105600 16 0 0.0 1.6 0.00 0.00 0.00 96 1021.8
20210919105033 17 290 0.0 1.6 0.00 0.00 0.00 97 1021.8
20210919104550 17 290 0.0 1.6 0.00 0.00 0.00 97 1021.8
20210919104033 16 290 0.0 1.6 0.00 0.00 0.00 97 1021.8
20210919103605 16 290 0.0 1.6 0.00 0.00 0.00 96 1021.9
20210919103121 16 0 0.0 0.0 0.00 0.00 0.00 97 1021.8
20210919102534 16 0 0.0 1.6 0.00 0.00 0.00 97 1021.6
20210919102034 16 0 0.0 1.6 0.00 0.00 0.00 96 1021.6
20210919101704 16 290 0.0 1.6 0.00 0.00 0.00 96 1021.7
20210919101033 17 289 0.0 1.6 0.00 0.00 0.00 97 1021.7
20210919100532 16 345 0.0 1.6 0.00 0.00 0.00 96 1021.7
20210919100042 16 345 0.0 1.6 0.00 0.00 0.00 96 1021.7
20210919095533 17 321 0.0 1.6 0.00 0.00 0.00 96 1021.7
20210919095047 17 273 0.0 1.6 0.00 0.00 0.00 97 1021.5
20210919094556 17 272 0.0 1.6 0.00 0.00 0.00 97 1021.5
20210919094033 17 271 0.0 1.6 0.00 0.00 0.00 97 1021.4
20210919093532 17 0 0.0 1.6 0.00 0.00 0.00 96 1021.5
20210919093227 17 296 0.0 1.6 0.00 0.00 0.00 97 1021.5
20210919092533 17 296 0.0 1.6 0.00 0.00 0.00 96 1021.6
20210919092036 17 296 0.0 1.6 0.00 0.00 0.00 96 1021.5
20210919091610 17 292 1.6 1.6 0.00 0.00 0.00 97 1021.5
20210919091033 17 292 0.0 3.2 0.00 0.00 0.00 96 1021.5
20210919090534 17 304 0.0 3.2 0.00 0.00 0.00 97 1021.5
20210919090114 17 290 0.0 1.6 0.00 0.00 0.00 97 1021.4
20210919085533 17 291 0.0 1.6 0.00 0.00 0.00 96 1021.5
20210919085034 17 0 0.0 1.6 0.00 0.00 0.00 97 1021.4
20210919084705 17 305 0.0 1.6 0.00 0.00 0.00 97 1021.5
20210919084047 17 307 0.0 0.0 0.00 0.00 0.00 97 1021.5
20210919083537 17 0 0.0 0.0 0.00 0.00 0.00 97 1021.5
20210919083103 17 0 0.0 1.6 0.00 0.00 0.00 97 1021.5
20210919082538 17 0 0.0 1.6 0.00 0.00 0.00 96 1021.6
20210919082033 17 302 0.0 1.6 0.00 0.00 0.00 96 1021.6
20210919081547 17 0 0.0 1.6 0.00 0.00 0.00 96 1021.5
20210919081033 17 0 0.0 1.6 0.00 0.00 0.00 97 1021.5
20210919080542 17 0 0.0 1.6 0.00 0.00 0.00 96 1021.5
20210919080115 17 296 0.0 1.6 0.00 0.00 0.00 96 1021.5
20210919075535 17 296 0.0 1.6 0.00 0.00 0.00 96 1021.6
20210919075039 17 0 0.0 1.6 0.00 0.00 0.00 96 1021.6
20210919074716 17 0 0.0 1.6 0.00 0.00 0.00 96 1021.7
20210919074041 17 0 0.0 1.6 0.00 0.00 0.00 96 1021.6
20210919073537 17 296 0.0 1.6 0.00 0.00 0.00 97 1021.6
20210919073104 17 297 0.0 1.6 0.00 0.00 0.00 96 1021.7
20210919072535 17 0 0.0 1.6 0.00 0.00 0.00 96 1021.7
20210919072034 17 0 0.0 1.6 0.00 0.00 0.00 96 1021.7
20210919071632 17 0 0.0 1.6 0.00 0.00 0.00 96 1021.8
20210919071036 17 0 0.0 1.6 0.00 0.00 0.00 96 1021.8
20210919070539 17 0 0.0 1.6 0.00 0.00 0.00 96 1021.7
20210919070120 18 297 0.0 1.6 0.00 0.00 0.00 96 1021.7
20210919065531 18 0 0.0 1.6 0.00 0.00 0.00 96 1021.5
20210919065031 18 0 0.0 1.6 0.00 0.00 0.00 96 1021.5
20210919064554 18 297 0.0 1.6 0.00 0.00 0.00 96 1021.6
20210919064033 18 0 0.0 1.6 0.00 0.00 0.00 96 1021.5
20210919063603 18 0 0.0 1.6 0.00 0.00 0.00 96 1021.7